COSMOS 2251 DEB, 34634

Orbit data source: Space-Track

COSMOS 2251 DEB, 34634 is space debris in LEO originally from a launch on Wed, 16 Jun 1993 UTC launched from the Plesetsk Missile And Space Complex (PKMTR). The debris from Iridium 33, an American commercial communications satellite, has been tracked extensively since its accidental collision with the defunct Russian satellite Cosmos 2251 in 2009. This event, occurring at high speed in low Earth orbit (LEO), generated thousands of pieces of space debris, significantly increasing the risk of further collisions. The Iridium 33 debris cloud has impacted space traffic management and orbital debris mitigation strategies, making it a subject of ongoing study in space situational awareness.

Loading next visibility...
Identifier
34634, 1993-036XF
Orbit
LEO
Country
Flag of CISCIS
Related business
Manufacturer
Unknown
Mission
Spacecraft
Bus & Motor
Unknown
Mass
Unknown
Launch date (UTC)
1993-06-16 (33 years ago)
Launch vehicle
Unknown
Launch site
Plesetsk Missile And Space Complex (PKMTR)
Object type
Payload
Rocket body
Debris
Shape & HBR
Unknown shape, 0.1 m
Radar Cross Section
Small (<0.1 m²)

Expand to show TLE details & history
Last TLE update: 7 hours ago

TLE from 7 hours ago
0 COSMOS 2251 DEB
1 34634U 93036XF  26121.47577022  .00001179  00000-0  27008-3 0  9995
2 34634  74.0488 130.3114 0046030 202.6442 310.0108 14.56125356908153
Epoch: 2026-05-01T11:25Z
TLE epoch observation values (Epoch: 2026-05-01T11:25:06.547Z)
Latitude
26.63974°
Longitude
-88.572°
Altitude
687.787 km
Speed
7.526 km/s
True Right ascension
20h 08m 27s
True Declination
26° 30' 03"
Sunlit
Object was in daylight at epoch
Visualization orbit readout
Latitude
Unknown
Longitude
Unknown
Altitude
Unknown
Speed
Unknown
Apparent Right ascension
Unknown
Apparent Declination
Unknown
Sunlit
N/A
Visualization observer readout
Local Sidereal Time
02:24:52
Azimuth
Unknown
Elevation
Unknown
Doppler factor
Unknown
Orbital elements
Apogee altitude
735.909 km
Perigee altitude
670.717 km
Semi-major axis
7,081.45 km
Eccentricity
0.0046
Inclination
74.0488°
RAAN
130.3114°
Arg. of periapsis
202.6442°
True anomaly
309.60531°
Mean anomaly
310.0108°
Eccentric anomaly
309.8082°
Mean motion
3.64217 °/min
Orbital period
98.84 mins
BSTAR
0.00027008
Loading maneuver chart data...
Computing Atmospheric mass density...

Documentation

Showing up to 5 results
|